カタログに戻る

THOR ABLESTAR DEB

運用中LEO
NORAD 124·DEBRIS·🇺🇸 United States

打ち上げ Jun 29, 1961 から Cape Canaveral Space Force Station

Loading…

次のパス (今後24時間)

TLE

最新Source: Space-Track

元期: Sep 10, 2026, 17:28 UTC

1 00124U 61015J   26253.72797781  .00000286  00000-0  12545-3 0  9992
2 00124  66.5461  16.1964 0061685  70.6649 290.1107 14.36125148371211

AllMySatでTHOR ABLESTAR DEBをリアルタイム追跡

Download on the App Store